www.pogodaiklimat.ru

Погода и климат >> Архив погоды >> Соломоновы Острова >> Хониара


ПОГОДА в Хониаре

  • Прогноз погоды в Хониаре
  • Монитор погоды в Хониаре

АРХИВ ПОГОДЫ в Хониаре

Время (UTC), дата Ветер
(напр.,м/с)
 
Видим.   Явления Облачность Т
(С)
Тd
(С)
f
(%)
Тe
(С)
Тes
(С)
Комфортность P
(гПа)
Po
(гПа)
Тmin
(С)
Tmax
(С)
R
(мм)
R24
(мм)
S
(см)
06 12.02 ЮЗ 5 10 км слаб. ливневой дождь {морось} 10/10 450 м
[Cu Sc]
+27.5 +23.9 81 +38 +38 очень
душно
1002.4 996.2 5
09 12.02 З 5 10 км дождь {ливн. осадки} 10/5 450 м
[Cu Sc As op]
+26.0 +21.5 76 +33 +33 очень
душно
1004.3 998.0 6
12 12.02 З 4 15 км слаб. морось 9/4 450 м
[Cu Sc Ac As]
+27.0 +21.8 73 +35 +35 очень
душно
1004.8 998.5 +30.6 2
15 12.02 З 3 20 км слаб. морось 9/6 450 м
[Cu Sc Ac As]
+25.4 +23.5 89 +34 +34 очень
душно
1004.0 997.7 1
18 12.02 З 2 20 км слаб. дождь {морось} 10/5 450 м
[Cu Sc Ac As]
+25.3 +23.9 92 +35 +35 очень
душно
1003.2 996.9 4
21 12.02 З 3 1500 м сильн. ливневой дождь 10/10 480 м
[Cu Sc]
+26.0 +23.8 88 +36 +36 очень
душно
1005.0 998.7 3
00 13.02 З 4 15 км слаб. дождь 10/4 480 м
[Cu Sc As op]
+27.0 +24.9 88 +39 +40 очень
душно
1009.1 1002.8 +24.4 6 47
03 13.02 Ю 6 10 км слаб. ливневой дождь 10/6 480 м
[Cu Sc As op]
+24.0 +23.3 96 +32 +32 очень
душно
1003.6 997.3 3
06 13.02 З 3 1500 м слаб. ливневой дождь 10/5 480 м
[Cu Sc Ac As]
+26.0 +23.1 84 +35 +35 очень
душно
1002.8 996.5 12
09 13.02 З 3 1500 м дождь 10/4 450 м
[Cu Sc As op]
+26.0 +23.1 84 +35 +35 очень
душно
1004.2 997.9 2
12 13.02 ЮЗ 5 1500 м дождь 10/4 450 м
[Cu Sc As op]
+25.0 +22.8 88 +33 +33 очень
душно
1005.7 999.4 +31.0 5
15 13.02 ЮЗ 3 20 км слаб. морось 9/9 450 м
[Cb cap]
+26.2 +21.2 74 +33 +33 очень
душно
1003.4 997.1 0.6
18 13.02 З 2 15 км слаб. морось 10/6 450 м
[Cu Sc Ac As]
+27.0 +22.4 76 +35 +35 очень
душно
1003.9 997.6 0.2
21 13.02 З 3 20 км осадки на расстоянии {морось} 10/5 480 м
[Cu Sc Ac As]
+27.2 +22.3 75 +36 +36 очень
душно
1005.8 999.5
00 14.02 ЮЗ 5 20 км осадки на расстоянии 10/4 570 м
[Cu Sc Ac As Cs]
+30.2 +21.6 60 +38 +41 очень
душно
1005.2 999.0 +24.1 21
06 14.02 СЗ 2 25 км осадки на расстоянии {ливн. осадки} 10/4 500 м
[Cu Sc Ac As]
+28.5 +23.4 74 +39 +39 очень
душно
1003.6 997.4 0.2
09 14.02 З 1 25 км осадки на расстоянии 9/3 480 м
[Cu Sc Ac trans Cs]
+27.0 +22.6 77 +36 +36 очень
душно
1006.1 999.8
12 14.02 штиль 0 25 км мгла 9/1 480 м
[Cu Sc Ac trans Cs]
+25.5 +22.5 83 +33 +33 очень
душно
1006.7 1000.4 +31.0 0.2
18 14.02 З 1 25 км мгла 8/3 450 м
[Cu Sc Ac trans Cs]
+26.0 +22.3 80 +34 +34 очень
душно
1004.2 997.9
21 14.02 З 4 15 км осадки на расстоянии {морось} 9/4 540 м
[Cu Sc Ac trans Cs]
+26.5 +22.0 76 +34 +35 очень
душно
1005.3 999.0 0.2
00 15.02 З 4 20 км осадки на расстоянии {морось} 8/4 540 м
[Cb cap Ac trans Cs]
+29.3 +23.4 71 +40 +45 очень
душно
1005.4 999.2 +25.2 0.2 0.8
03 15.02 З 5 20 км осадки на расстоянии 10/5 500 м
[Cb cap Ac trans Cs]
+29.2 +21.7 64 +37 +38 очень
душно
1003.7 997.5
06 15.02 З 5 20 км осадки на расстоянии 10/4 500 м
[Cu Sc Ac As Cs]
+28.5 +21.8 67 +37 +37 очень
душно
1002.9 996.7
09 15.02 СЗ 2 20 км осадки на расстоянии 10/5 480 м
[Cu Sc Ac trans Cs]
+27.6 +21.2 68 +35 +35 очень
душно
1004.8 998.5
12 15.02 З 3 20 км осадки на расстоянии 9/4 500 м
[Cu Sc Ac trans Cs]
+28.0 +20.4 63 +34 +34 очень
душно
1005.3 999.0 +31.8
15 15.02 З 2 20 км осадки на расстоянии 9/1 450 м
[Cu med, cong Cs]
+26.5 +21.2 73 +34 +34 очень
душно
1004.2 997.9
18 15.02 З 3 20 км осадки на расстоянии 9/1 450 м
[Cu med, cong Cs]
+25.8 +21.8 79 +33 +33 очень
душно
1003.7 997.4
21 15.02 С 2 25 км мгла 9/3 540 м
[Cu med, cong Cs]
+28.0 +20.8 65 +35 +35 очень
душно
1005.7 999.4
00 16.02 З 5 25 км осадки на расстоянии 9/3 600 м
[Cu Sc Cs]
+30.0 +21.9 62 +39 +45 очень
душно
1005.5 999.3 +26.7
03 16.02 З 7 20 км осадки на расстоянии 10/5 600 м
[Cu Sc Ac trans Cs]
+31.0 +21.4 57 +39 +39 очень
душно
1003.4 997.2
06 16.02 СЗ 3 20 км осадки на расстоянии 10/5 500 м
[Cb cap Ac trans Cs]
+28.6 +23.7 75 +39 +40 очень
душно
1002.2 996.0
12 16.02 СЗ 2 15 км осадки на расстоянии {ливн. осадки} 9/5 450 м
[Cb cap Ac trans Cs]
+26.9 +23.0 79 +36 +36 очень
душно
1004.4 998.1 +31.6 1
18 16.02 З 2 25 км мгла 5/1 480 м
[Cu Sc Ac trans Cs]
+26.0 +23.2 85 +35 +35 очень
душно
1002.2 995.9 1
21 16.02 З 2 20 км осадки на расстоянии {ливн. осадки} 10/3 480 м
[Cu Sc As op]
+27.0 +24.1 84 +37 +37 очень
душно
1004.1 997.8 0.8
00 17.02 СЗ 3 10 км слаб. дождь 10/3 540 м
[Cu Sc As op]
+28.5 +25.4 83 +42 +44 опасность
перегрева
1004.6 998.4 +25.5 0.8 4
06 17.02 З 5 10 км слаб. ливневой дождь {морось} 10/5 500 м
[Cu Sc As op]
+29.0 +23.2 71 +39 +39 очень
душно
1001.6 995.4 0.8
09 17.02 З 2 20 км осадки на расстоянии {ливн. осадки} 9/3 450 м
[Cu Sc Ac As Cs]
+27.0 +22.6 77 +36 +36 очень
душно
1003.6 997.3 2
12 17.02 Ю 2 25 км мгла 8/3 450 м
[Cu Sc Ac As Cs]
+26.5 +22.0 76 +34 +34 очень
душно
1005.3 999.0 +32.0 0.2
15 17.02 СЗ 2 25 км мгла 9/1 450 м
[Cu Sc Ac As]
+26.4 +21.3 74 +34 +34 очень
душно
1003.6 997.3
18 17.02 З 2 25 км мгла 8/1 450 м
[Cu Sc Ac trans Cs]
+26.0 +22.1 79 +34 +34 очень
душно
1003.5 997.2
21 17.02 С 1 25 км мгла 9/3 540 м
[Cu Sc Ac As]
+27.0 +22.6 77 +36 +36 очень
душно
1005.2 998.9
00 18.02 З 4 25 км мгла 9/3 540 м
[Cu Sc Ac trans Cs]
+31.5 +22.8 60 +41 +47 опасность
перегрева
1005.2 999.0 +25.4 3
03 18.02 З 5 25 км осадки на расстоянии 6/3 600 м
[Cu med, cong Cs]
+31.4 +22.1 58 +40 +46 очень
душно
1003.5 997.3
09 18.02 З 2 20 км слаб. морось 9/5 500 м
[Cu Sc Cs]
+27.1 +21.0 69 +34 +34 очень
душно
1005.7 999.4 0.1
12 18.02 З 2 10 км слаб. морось 10/5 450 м
[Cu Sc Ac As]
+26.0 +23.1 84 +35 +35 очень
душно
1006.9 1000.6 +32.8 0.4
15 18.02 З 2 25 км мгла 6/3 450 м
[Cb cap Cs]
+25.5 +22.5 83 +33 +33 очень
душно
1005.2 998.9 0.1
18 18.02 ЮЗ 1 25 км осадки на расстоянии {ливн. осадки} 5/3 450 м
[Cb cap Cs]
+24.0 +22.7 92 +31 +31 очень
душно
1005.2 998.9 5
21 18.02 З 2 25 км осадки на расстоянии 9/3 500 м
[Cu med, cong Ac trans Cs]
+27.0 +23.7 82 +37 +37 очень
душно
1006.8 1000.5
00 19.02 З 4 25 км осадки на расстоянии 8/3 570 м
[Cu Sc Ac trans Cs]
+29.0 +23.2 71 +39 +46 очень
душно
1007.0 1000.8 +23.5 6
03 19.02 З 3 20 км мгла 9/3 570 м
[Cu med, cong Ac trans Cs]
+30.7 +21.3 57 +38 +40 очень
душно
1005.1 998.9

 

Местоположение метеостанции Хониара (Соломоновы Острова): широта -9.42 долгота 159.97 высота над уровнем моря 55 м.

В архиве по умолчанию представлена погода в Хониаре за последнюю неделю. Архивные данные за месяц целиком и за предыдущие месяцы, начиная с января 2011 года, Вы можете получить, выбрав интересующий диапазон дат из раскрывающегося списка и нажав кнопку "Ввод!".


*Определитесь, кто Вы:
робот инопланетянин человек

Внимание! Время в таблицах - всемирное. Для получения местного времени необходимо прибавить поправку, которая равна 11 ч.

Смотрите также архив погоды в соседних городах и на ближайших метеорологических станциях:

Погода в Хониара аэропорту (Соломоновы Острова) (9 км)
Погода в Ауки (Соломоновы Острова) (110 км)
Погода в Манде (Соломоновы Острова) (322 км)
Погода на Острове Таро (Соломоновы Острова) (495 км)
Погода на Островах Санта-Круз (Соломоновы Острова) (653 км)
Погода на Мисиме (Папуа Новая Гвинея) (794 км)
Погода на Линуа (Вануату) (845 км)
Погода в Соле (Вануату) (961 км)
Погода в Токуа (Папуа Новая Гвинея) (1013 км)
Погода в Санто-Пекоа (Вануату) (1037 км)

Пояснения к столбцам:

Ветер - указаны скорость ветра в м/с - средняя за 10 мин, порывы в срок и между сроками (в фигурных скобках) и направление, откуда дует ветер: С - северный, СВ - северо-восточный, В - восточный, ЮВ - юго-восточный, Ю - южный, ЮЗ - юго-западный, З - западный, СЗ - северо-западный.
Видимость - горизонтальная дальность видимости в метрах или километрах. При видимости от 1 до 10 км при отсутствии осадков обычно наблюдается дымка, при ухудшении видимости до 1 км и менее - туман. В сухую погоду видимость может ухудшаться дымом, пылью или мглою.
Явления - указаны атмосферные явления, наблюдавшиеся в срок или в последний час перед сроком; фигурными скобками обозначены явления, наблюдавшиеся между сроками (за 1-3 часа до срока); квадратными скобками обозначены град или гололедные отложения с указанием их диаметра в мм.
Облачность - указаны через наклонную черту общая и нижняя облачность в баллах и высота нижней границы облаков в метрах; квадратными скобками обозначены формы облаков: Ci - перистые, Cs - перисто-слоистые, Cc - перисто-кучевые, Ac - высококучевые, As - высокослоистые, Sc - слоисто-кучевые, Ns - слоисто-дождевые, Cu - кучевые, Cb - кучево-дождевые. Подробнее классификацию облаков см. в Атласе облаков (PDF).
T - Температура воздуха - температура, измеренная на высоте 2 м над землей.
Td - Температура точки росы - температура, при понижении до которой содержащийся в воздухе водяной пар достигнет насыщения.
f - Относительная влажность воздуха - влажноcть воздуха, измеренная на высоте 2 м над землей.
Te - Эффективная температура - температура, которую ощущает одетый по сезону человек в тени. Характеристика душности погоды. При расчете учитывается влияние влажности воздуха и скорости ветра на теплоощущения человека.
Tes - Эффективная температура на солнце - температура, которую ощущает человек, с поправкой на солнечный нагрев. Характеристика знойности погоды. Зависит от высоты солнца над горизонтом, облачности и скорости ветра. Ночью, в пасмурную погоду, а также при ветре 12 м/с и более поправка равна нулю.
P - Атмосферное давление - приведенное к уровню моря атмосферное давление.
Po - Атмосферное давление - измеренное на уровне метеостанции атмосферное давление.
Tmin - Минимальная температура - минимум температуры воздуха на высоте 2 м над землей.
Tmax - Максимальная температура - максимум температуры воздуха на высоте 2 м над землей.
R - Количество осадков - Количество выпавших осадков за период времени, мм. При наведении курсора мыши на число - период времени, за который выпало указанное количество осадков.
R24 - Количество осадков - Количество выпавших осадков за 24 часа, мм.
S - Снежный покров - Высота снежного покрова, см. При наведении курсора мыши на число - состояние снежного покрова и степень покрытия местности в баллах.